Location: Newark
(49.3667°N, 21.6167°E)
Time: 19:09:57
(UTC+00:00)

Envisat - Pass Details

Date: 15 December 2019
Orbit: 764 x 766 km, 98.1° (Epoch: 28 January)

Event Time Altitude Azimuth Distance (km) Brightness Sun altitude
Rises 17:51:42 0° 214° (SSW) 3,223 6.7 -30.8°
Reaches altitude 10° 17:54:56 10° 236° (SW) 2,303 6.1 -31.3°
Maximum altitude 17:57:57 16° 273° (W) 1,936 5.8 -31.8°
Drops below altitude 10° 18:01:00 10° 310° (NW) 2,314 6.0 -32.3°
Sets 18:04:16 0° 332° (NNW) 3,246 6.6 -32.8°
